Date String (YYYY-MM-DD hh:mm:ss) UTC,Instrument flags,Ambient pressure (hPa),Sample flow (lpm),Bypass flow (lpm),Sample temperature (°C),Ambient temperature (°C),ASC tube jacket temperature (°C),LED temperature (°C),Box temperature (°C),Sample RH (%),Span deviation,Mass concentration (μg/m³),Mass concentration (μg/m³),Mass concentration (μg/m³)
DateTimeUTC,F1_M11,P_M11,Q1_M11,Q2_M11,T1_M11,T2_M11,T3_M11,T4_M11,T5_M11,U1_M11,ZSPAN_M11,X0_M11,X2_M11,X1_M11
2022-11-18 03:00:00,,0833.6,5.00,0.00,22.3,21.6,00.0,31.2,24.2,10.1,0000.0,0007.54,0005.06,0004.88
2022-11-18 03:01:00,,0833.6,5.00,0.00,22.4,22.3,00.0,31.2,24.4,10.0,0000.0,0007.42,0005.09,0004.88
2022-11-18 03:02:00,,0833.6,4.99,0.00,22.5,22.2,00.0,31.2,24.4,10.0,0000.0,0007.43,0005.10,0004.88
2022-11-18 03:03:00,,0833.6,5.02,0.00,22.5,21.9,00.0,31.3,24.4,10.0,0000.0,0007.46,0005.10,0004.88
2022-11-18 03:04:00,,0833.5,4.99,0.00,22.5,21.6,00.0,31.3,24.3,10.0,0000.0,0007.44,0005.11,0004.88
2022-11-18 03:05:00,,0833.5,4.98,0.00,22.4,21.4,00.0,31.3,24.3,10.0,0000.0,0007.62,0005.12,0004.88
2022-11-18 03:06:00,,0833.5,5.01,0.00,22.4,21.3,00.0,31.3,24.2,10.0,0000.0,0008.08,0005.11,0004.88
2022-11-18 03:07:00,,0833.5,5.00,0.00,22.4,21.1,00.0,31.3,24.2,10.1,0000.0,0008.05,0005.10,0004.87
2022-11-18 03:08:00,,0833.5,5.01,0.00,22.4,21.0,00.0,31.3,24.2,10.1,0000.0,0008.06,0005.10,0004.86
2022-11-18 03:09:00,,0833.5,4.99,0.00,22.4,21.0,00.0,31.3,24.2,10.1,0000.0,0008.25,0005.09,0004.85
2022-11-18 03:10:00,,0833.6,5.00,0.00,22.4,20.9,00.0,31.3,24.1,10.1,0000.0,0008.26,0005.09,0004.85
2022-11-18 03:11:00,,0833.6,5.01,0.00,22.3,20.9,00.0,31.3,24.1,10.1,0000.0,0008.26,0005.08,0004.85
2022-11-18 03:12:00,,0833.5,5.01,0.00,22.3,20.8,00.0,31.3,24.1,10.1,0000.0,0008.17,0005.04,0004.84
2022-11-18 03:13:00,,0833.5,5.00,0.00,22.3,20.8,00.0,31.3,24.1,10.1,0000.0,0008.20,0005.04,0004.82
2022-11-18 03:14:00,,0833.6,4.98,0.00,22.3,20.8,00.0,31.3,24.1,10.2,0000.0,0008.15,0005.01,0004.80
2022-11-18 03:15:00,,0833.6,5.00,0.00,22.3,20.8,00.0,31.2,24.0,10.2,0000.0,0008.39,0005.00,0004.77
2022-11-18 03:16:00,,0833.6,5.01,0.00,22.3,20.8,00.0,31.2,24.1,10.2,0000.0,0008.35,0004.98,0004.75
2022-11-18 03:17:00,,0833.6,5.01,0.00,22.3,21.5,00.0,31.2,24.2,10.1,0000.0,0007.82,0004.98,0004.73
2022-11-18 03:18:00,,0833.6,4.99,0.00,22.4,22.3,00.0,31.2,24.4,10.1,0000.0,0007.89,0004.99,0004.71
2022-11-18 03:19:00,,0833.5,5.00,0.00,22.5,22.2,00.0,31.2,24.4,10.1,0000.0,0007.88,0004.98,0004.70
2022-11-18 03:20:00,,0833.5,5.02,0.00,22.5,21.9,00.0,31.3,24.4,10.1,0000.0,0007.76,0004.99,0004.69
2022-11-18 03:21:00,,0833.6,4.99,0.00,22.5,21.6,00.0,31.3,24.3,10.1,0000.0,0007.78,0005.02,0004.71
2022-11-18 03:22:00,,0833.6,4.99,0.00,22.4,21.4,00.0,31.3,24.3,10.1,0000.0,0007.84,0005.06,0004.73
2022-11-18 03:23:00,,0833.5,5.00,0.00,22.4,21.3,00.0,31.3,24.2,10.1,0000.0,0007.89,0005.08,0004.74
2022-11-18 03:24:00,,0833.5,5.01,0.00,22.4,21.2,00.0,31.3,24.2,10.1,0000.0,0007.95,0005.08,0004.76
2022-11-18 03:25:00,,0833.5,5.00,0.00,22.4,21.1,00.0,31.3,24.2,10.1,0000.0,0008.17,0005.14,0004.79
2022-11-18 03:26:00,,0833.5,4.98,0.00,22.4,21.0,00.0,31.3,24.2,10.1,0000.0,0007.96,0005.16,0004.81
2022-11-18 03:27:00,,0833.5,5.00,0.00,22.3,20.9,00.0,31.3,24.1,10.1,0000.0,0007.90,0005.16,0004.81
2022-11-18 03:28:00,,0833.5,5.01,0.00,22.3,20.8,00.0,31.3,24.1,10.1,0000.0,0007.85,0005.13,0004.81
2022-11-18 03:29:00,,0833.5,5.01,0.00,22.3,20.6,00.0,31.3,24.0,10.2,0000.0,0007.83,0005.11,0004.80
2022-11-18 03:30:00,,0833.5,4.99,0.00,22.2,20.4,00.0,31.3,23.9,10.2,0000.0,0007.79,0005.05,0004.75
2022-11-18 03:31:00,,0833.5,4.99,0.00,22.1,20.2,00.0,31.2,23.8,10.2,0000.0,0007.77,0004.99,0004.67
2022-11-18 03:32:00,,0833.5,5.00,0.00,22.1,20.0,00.0,31.2,23.7,10.2,0000.0,0007.65,0004.88,0004.57
2022-11-18 03:33:00,,0833.5,5.02,0.00,22.1,20.5,00.0,31.1,23.8,10.2,0000.0,0007.50,0004.76,0004.47
2022-11-18 03:34:00,,0833.6,5.00,0.00,22.2,21.5,00.0,31.1,24.0,10.2,0000.0,0007.37,0004.67,0004.39
2022-11-18 03:35:00,,0833.6,4.98,0.00,22.2,22.1,00.0,31.1,24.2,10.1,0000.0,0007.17,0004.58,0004.31
2022-11-18 03:36:00,,0833.5,5.02,0.00,22.3,21.7,00.0,31.1,24.1,10.1,0000.0,0006.60,0004.47,0004.22
2022-11-18 03:37:00,,0833.5,5.00,0.00,22.2,21.3,00.0,31.1,24.0,10.1,0000.0,0006.45,0004.37,0004.13
2022-11-18 03:38:00,,0833.5,4.99,0.00,22.2,20.9,00.0,31.1,23.9,10.1,0000.0,0006.40,0004.32,0004.07
2022-11-18 03:39:00,,0833.5,5.02,0.00,22.2,20.7,00.0,31.1,23.9,10.1,0000.0,0006.23,0004.25,0004.00
2022-11-18 03:40:00,,0833.4,4.99,0.00,22.1,20.6,00.0,31.1,23.9,10.1,0000.0,0005.93,0004.17,0003.94
2022-11-18 03:41:00,,0833.4,4.99,0.00,22.1,20.5,00.0,31.1,23.8,10.2,0000.0,0005.77,0004.13,0003.93
2022-11-18 03:42:00,,0833.5,5.01,0.00,22.0,20.2,00.0,31.1,23.7,10.2,0000.0,0005.59,0004.09,0003.92
2022-11-18 03:43:00,,0833.5,5.01,0.00,22.0,20.0,00.0,31.1,23.6,10.2,0000.0,0005.63,0004.09,0003.92
2022-11-18 03:44:00,,0833.4,5.00,0.00,21.9,19.9,00.0,31.0,23.5,10.2,0000.0,0005.77,0004.10,0003.91
2022-11-18 03:45:00,,0833.4,5.00,0.00,21.8,19.7,00.0,31.0,23.4,10.3,0000.0,0005.89,0004.11,0003.91
2022-11-18 03:46:00,,0833.5,5.00,0.00,21.8,19.6,00.0,31.0,23.4,10.3,0000.0,0005.99,0004.11,0003.90
2022-11-18 03:47:00,,0833.5,5.00,0.00,21.8,20.3,00.0,30.9,23.5,10.3,0000.0,0006.01,0004.10,0003.89
2022-11-18 03:48:00,,0833.5,5.01,0.00,21.9,21.4,00.0,30.8,23.7,10.3,0000.0,0005.84,0004.06,0003.88
2022-11-18 03:49:00,,0833.4,4.98,0.00,22.0,21.7,00.0,30.9,23.8,10.2,0000.0,0005.73,0004.03,0003.86
2022-11-18 03:50:00,,0833.4,5.01,0.00,21.9,21.1,00.0,30.9,23.7,10.2,0000.0,0005.69,0004.02,0003.86
2022-11-18 03:51:00,,0833.4,5.01,0.00,21.9,20.6,00.0,30.9,23.5,10.3,0000.0,0005.74,0004.03,0003.86
2022-11-18 03:52:00,,0833.4,4.99,0.00,21.8,20.3,00.0,30.9,23.5,10.3,0000.0,0006.19,0004.02,0003.84
2022-11-18 03:53:00,,0833.4,4.98,0.00,21.8,20.1,00.0,30.9,23.4,10.3,0000.0,0006.70,0003.99,0003.82
2022-11-18 03:54:00,,0833.4,5.00,0.00,21.7,19.9,00.0,30.8,23.4,10.3,0000.0,0006.61,0003.96,0003.79
2022-11-18 03:55:00,,0833.4,5.00,0.00,21.7,19.8,00.0,30.8,23.3,10.3,0000.0,0006.42,0003.91,0003.75
2022-11-18 03:56:00,,0833.4,5.00,0.00,21.7,19.7,00.0,30.8,23.3,10.3,0000.0,0006.40,0003.87,0003.72
2022-11-18 03:57:00,,0833.5,5.00,0.00,21.6,19.6,00.0,30.8,23.2,10.3,0000.0,0006.24,0003.81,0003.69
2022-11-18 03:58:00,,0833.4,5.01,0.00,21.6,20.0,00.0,30.7,23.3,10.3,0000.0,0006.30,0003.82,0003.67
2022-11-18 03:59:00,,0833.4,5.01,0.00,21.7,21.1,00.0,30.6,23.5,10.3,0000.0,0006.43,0003.84,0003.67
